Vilalleons





Hora UTC 16:40
Temperatura 22.3 ºC
Humitat 65.0 %
Pressió 1024.0 hPa
Pluja 0.0 mm
Velocitat vent 6.4 km/h
Direcció vent SE

Dades diàries 2020-05-25



Hora UTC (hivern +1h; estiu +2h)
Temperatura (ºC) Humitat (%) Pressió (hPa) Velocitat vent (km/h) Precipitació (mm)
Hora UTC Aire Humitat Pressió Vel. Dir. Vel. Max Dir. Intent. màx 5 min.
00:05 16.6 89.0 1025.6 1.6 ESE 1.6 0.0
00:10 16.7 89.0 1025.6 0.0 ESE 3.2 0.0
00:15 16.7 89.0 1025.5 0.0 ESE 1.6 0.0
00:20 16.6 89.0 1025.4 0.0 ESE 1.6 0.0
00:25 16.6 90.0 1025.5 0.0 ESE 0.0 0.0
00:30 16.6 90.0 1025.5 0.0 ESE 0.0 0.0
00:35 16.4 89.0 1025.4 0.0 ESE 0.0 0.0
00:40 16.4 90.0 1025.3 1.6 ESE 1.6 0.0
00:45 16.4 90.0 1025.4 0.0 ESE 1.6 0.0
00:50 16.3 91.0 1025.3 0.0 ESE 1.6 0.0
00:55 16.3 91.0 1025.4 0.0 ESE 1.6 0.0
01:00 16.3 90.0 1025.3 0.0 ESE 1.6 0.0
01:05 16.3 90.0 1025.2 0.0 ESE 1.6 0.0
01:10 16.3 91.0 1025.3 0.0 ESE 1.6 0.0
01:15 16.3 91.0 1025.2 0.0 ESE 1.6 0.0
01:20 16.2 90.0 1025.2 0.0 ESE 0.0 0.0
01:25 16.2 91.0 1025.2 0.0 ESE 0.0 0.0
01:30 16.1 90.0 1025.1 0.0 ESE 0.0 0.0
01:35 16.1 91.0 1025.1 0.0 ESE 0.0 0.0
01:40 16.1 91.0 1025.1 0.0 ESE 0.0 0.0
01:45 16.0 91.0 1025.0 0.0 ESE 0.0 0.0
01:50 16.0 92.0 1024.9 0.0 ESE 0.0 0.0
01:55 15.9 91.0 1024.8 0.0 ESE 0.0 0.0
02:00 15.9 92.0 1024.8 1.6 ESE 1.6 0.0
02:05 15.8 92.0 1024.8 1.6 ESE 3.2 0.0
02:10 15.8 92.0 1024.8 1.6 ESE 3.2 0.0
02:15 15.8 92.0 1024.8 1.6 ESE 3.2 0.0
02:20 15.7 92.0 1024.8 1.6 ESE 3.2 0.0
02:25 15.7 93.0 1024.8 1.6 ESE 3.2 0.0
02:30 15.7 93.0 1024.7 0.0 ESE 3.2 0.0
02:35 15.7 93.0 1024.8 3.2 ESE 3.2 0.0
02:40 15.7 93.0 1024.8 1.6 ESE 3.2 0.0
02:45 15.7 93.0 1024.9 0.0 ESE 3.2 0.0
02:50 15.7 92.0 1024.9 0.0 ESE 1.6 0.0
02:55 15.7 92.0 1024.9 0.0 ESE 1.6 0.0
03:00 15.7 92.0 1024.9 0.0 ESE 1.6 0.0
03:05 15.8 93.0 1024.8 0.0 ESE 0.0 0.0
03:10 15.8 93.0 1024.9 1.6 ESE 1.6 0.0
03:15 15.8 93.0 1024.7 1.6 ESE 1.6 0.0
03:20 15.8 93.0 1024.8 0.0 ESE 3.2 0.0
03:25 15.8 92.0 1024.8 1.6 ESE 3.2 0.0
03:30 15.8 93.0 1024.8 1.6 ESE 3.2 0.0
03:35 15.7 92.0 1024.7 1.6 ESE 3.2 0.0
03:40 15.7 92.0 1024.7 1.6 ESE 3.2 0.0
03:45 15.6 92.0 1024.8 0.0 ESE 1.6 0.0
03:50 15.6 92.0 1024.7 0.0 ESE 1.6 0.0
03:55 15.6 92.0 1024.7 1.6 ESE 3.2 0.0
04:00 15.6 92.0 1024.7 0.0 ESE 3.2 0.0
04:05 15.6 93.0 1024.7 1.6 ESE 3.2 0.0
04:10 15.5 93.0 1024.7 1.6 ESE 3.2 0.0
04:15 15.5 92.0 1024.7 0.0 ESE 3.2 0.0
04:20 15.4 92.0 1024.7 0.0 ESE 1.6 0.0
04:25 15.4 93.0 1024.7 1.6 ESE 1.6 0.0
04:30 15.4 93.0 1024.8 0.0 ESE 1.6 0.0
04:35 15.5 93.0 1024.8 0.0 ESE 1.6 0.0
04:40 15.6 93.0 1024.9 0.0 ESE 1.6 0.0
04:45 15.6 92.0 1024.8 0.0 SW 4.8 0.0
04:50 15.7 92.0 1024.8 0.0 SW 4.8 0.0
04:55 15.7 91.0 1024.9 0.0 SW 3.2 0.0
05:00 15.7 89.0 1024.9 1.6 SW 1.6 0.0
05:05 15.8 88.0 1025.1 1.6 SW 3.2 0.0
05:10 15.8 87.0 1025.0 0.0 SW 3.2 0.0
05:15 15.9 84.0 1025.1 1.6 SW 3.2 0.0
05:20 16.0 82.0 1025.1 1.6 S 4.8 0.0
05:25 16.1 85.0 1025.0 1.6 S 4.8 0.0
05:30 16.1 82.0 1025.0 0.0 SSW 3.2 0.0
05:35 16.2 78.0 1025.1 1.6 SSW 6.4 0.0
05:40 16.2 80.0 1025.2 0.0 S 4.8 0.0
05:45 16.3 79.0 1025.2 0.0 W 4.8 0.0
05:50 16.3 78.0 1025.2 4.8 WSW 4.8 0.0
05:55 16.5 78.0 1025.2 0.0 WSW 4.8 0.0
06:00 16.6 79.0 1025.2 3.2 WSW 6.4 0.0
06:05 16.8 78.0 1025.4 1.6 WSW 4.8 0.0
06:10 16.9 77.0 1025.6 1.6 SW 9.7 0.0
06:15 16.9 78.0 1025.7 1.6 SW 9.7 0.0
06:20 17.1 79.0 1025.6 1.6 S 6.4 0.0
06:25 17.1 79.0 1025.6 1.6 W 8.0 0.0
06:30 17.1 78.0 1025.6 3.2 SW 9.7 0.0
06:35 17.2 81.0 1025.4 8.0 SSE 9.7 0.0
06:40 17.2 82.0 1025.4 1.6 WSW 9.7 0.0
06:45 17.1 77.0 1025.4 1.6 SW 8.0 0.0
06:50 17.2 79.0 1025.6 3.2 WSW 8.0 0.0
06:55 17.3 79.0 1025.6 3.2 SW 8.0 0.0
07:00 17.2 77.0 1025.5 1.6 WSW 9.7 0.0
07:05 17.2 80.0 1025.6 1.6 S 9.7 0.0
07:10 17.2 81.0 1025.5 3.2 SSW 4.8 0.0
07:15 17.2 78.0 1025.6 1.6 SW 6.4 0.0
07:20 17.2 77.0 1025.6 1.6 SSW 6.4 0.0
07:25 17.3 79.0 1025.6 0.0 SSE 6.4 0.0
07:30 17.4 78.0 1025.6 1.6 SSW 4.8 0.0
07:35 17.5 77.0 1025.6 3.2 SSW 4.8 0.0
07:40 17.7 76.0 1025.7 3.2 W 4.8 0.0
07:45 17.7 77.0 1025.6 3.2 SSE 4.8 0.0
07:50 17.9 76.0 1025.7 3.2 S 4.8 0.0
07:55 18.2 74.0 1025.5 1.6 SW 4.8 0.0
08:00 18.3 75.0 1025.4 1.6 W 8.0 0.0
08:05 18.6 75.0 1025.5 3.2 WSW 8.0 0.0
08:10 18.8 74.0 1025.5 1.6 WSW 4.8 0.0
08:15 19.1 71.0 1025.4 0.0 SW 4.8 0.0
08:20 19.2 66.0 1025.2 1.6 SW 4.8 0.0
08:25 19.4 72.0 1025.5 1.6 WSW 6.4 0.0
08:30 19.7 64.0 1025.5 0.0 WSW 6.4 0.0
08:35 19.8 62.0 1025.6 6.4 NNW 8.0 0.0
08:40 19.7 66.0 1025.7 3.2 SW 8.0 0.0
08:45 19.9 69.0 1025.8 1.6 WNW 8.0 0.0
08:50 20.3 64.0 1025.8 1.6 NNW 8.0 0.0
08:55 20.6 63.0 1025.8 4.8 N 6.4 0.0
09:00 20.2 64.0 1025.6 3.2 NNE 6.4 0.0
09:05 20.4 65.0 1025.6 3.2 NW 6.4 0.0
09:10 20.6 64.0 1025.7 1.6 NW 6.4 0.0
09:15 20.7 63.0 1025.9 3.2 NNW 12.9 0.0
09:20 21.1 62.0 1026.1 4.8 NNW 12.9 0.0
09:25 21.5 65.0 1026.3 3.2 S 8.0 0.0
09:30 22.1 65.0 1026.4 3.2 S 6.4 0.0
09:35 22.3 66.0 1026.3 1.6 W 8.0 0.0
09:40 21.8 61.0 1026.4 1.6 N 9.7 0.0
09:45 21.4 64.0 1026.4 3.2 NNW 9.7 0.0
09:50 21.4 67.0 1026.4 4.8 WSW 11.3 0.0
09:55 21.3 63.0 1026.0 0.0 NW 11.3 0.0
10:00 21.3 67.0 1025.8 1.6 N 4.8 0.0
10:05 21.4 66.0 1025.9 1.6 WSW 4.8 0.0
10:10 21.6 67.0 1026.0 3.2 NNE 6.4 0.0
10:15 21.6 64.0 1026.0 3.2 NNW 6.4 0.0
10:20 21.1 65.0 1025.9 1.6 NW 8.0 0.0
10:25 21.1 68.0 1025.7 3.2 SW 6.4 0.0
10:30 21.1 67.0 1025.8 3.2 WNW 4.8 0.0
10:35 21.1 67.0 1025.7 1.6 WNW 8.0 0.0
10:40 21.2 72.0 1025.8 3.2 WSW 8.0 0.0
10:45 21.3 69.0 1025.8 3.2 WSW 4.8 0.0
10:50 21.3 68.0 1025.7 1.6 WSW 4.8 0.0
10:55 21.2 69.0 1025.7 1.6 SW 6.4 0.0
11:00 21.1 65.0 1025.6 1.6 SW 6.4 0.0
11:05 21.2 69.0 1025.6 1.6 W 6.4 0.0
11:10 21.2 65.0 1025.5 3.2 W 6.4 0.0
11:15 21.3 72.0 1025.6 1.6 W 6.4 0.0
11:20 21.2 64.0 1025.6 3.2 WNW 4.8 0.0
11:25 21.1 70.0 1025.7 1.6 W 4.8 0.0
11:30 20.8 72.0 1025.6 1.6 SSW 4.8 0.0
11:35 20.7 71.0 1025.6 1.6 SSW 4.8 0.0
11:40 20.7 72.0 1025.6 1.6 SSW 3.2 0.0
11:45 20.8 70.0 1025.5 1.6 ESE 9.7 0.0
11:50 20.9 68.0 1025.6 3.2 ESE 9.7 0.0
11:55 21.1 68.0 1025.5 3.2 ESE 6.4 0.0
12:00 21.2 66.0 1025.6 1.6 ESE 6.4 0.0
12:05 21.4 67.0 1025.6 0.0 NE 4.8 0.0
12:10 21.5 67.0 1025.6 6.4 ESE 6.4 0.0
12:15 21.4 70.0 1025.6 4.8 SE 9.7 0.0
12:20 21.2 68.0 1025.4 0.0 SE 6.4 0.0
12:25 21.3 72.0 1025.4 1.6 SE 6.4 0.0
12:30 21.1 66.0 1025.5 1.6 SE 3.2 0.0
12:35 21.1 68.0 1025.4 0.0 SE 3.2 0.0
12:40 21.1 66.0 1025.3 3.2 N 4.8 0.0
12:45 21.2 67.0 1025.3 1.6 N 4.8 0.0
12:50 21.3 67.0 1025.1 0.0 N 3.2 0.0
12:55 21.3 71.0 1025.1 3.2 ESE 8.0 0.0
13:00 21.2 68.0 1025.1 3.2 SE 9.7 0.0
13:05 21.3 70.0 1025.1 3.2 ESE 9.7 0.0
13:10 21.3 70.0 1025.1 3.2 SE 9.7 0.0
13:15 21.4 69.0 1025.0 1.6 ESE 6.4 0.0
13:20 21.7 68.0 1025.1 1.6 ESE 3.2 0.0
13:25 21.8 70.0 1025.1 1.6 ESE 9.7 0.0
13:30 21.8 68.0 1025.1 1.6 SSE 9.7 0.0
13:35 21.8 67.0 1025.0 0.0 SSE 4.8 0.0
13:40 21.8 68.0 1025.0 1.6 SSE 3.2 0.0
13:45 21.9 69.0 1025.0 3.2 SSE 4.8 0.0
13:50 21.9 69.0 1024.8 6.4 ESE 11.3 0.0
13:55 21.8 68.0 1024.8 3.2 SE 11.3 0.0
14:00 21.7 71.0 1024.8 1.6 SE 6.4 0.0
14:05 21.8 67.0 1024.8 1.6 SE 6.4 0.0
14:10 21.8 68.0 1024.6 1.6 SE 4.8 0.0
14:15 21.9 68.0 1024.5 6.4 W 6.4 0.0
14:20 22.1 67.0 1024.6 3.2 W 6.4 0.0
14:25 22.2 67.0 1024.7 1.6 WSW 4.8 0.0
14:30 22.4 68.0 1024.6 1.6 WSW 3.2 0.0
14:35 22.5 67.0 1024.5 3.2 S 4.8 0.0
14:40 22.5 66.0 1024.5 1.6 S 4.8 0.0
14:45 22.4 69.0 1024.4 4.8 ESE 9.7 0.0
14:50 22.1 67.0 1024.4 4.8 ESE 11.3 0.0
14:55 21.8 67.0 1024.4 3.2 SE 11.3 0.0
15:00 21.7 71.0 1024.4 1.6 SE 6.4 0.0
15:05 21.8 66.0 1024.3 0.0 SE 3.2 0.0
15:10 21.9 69.0 1024.4 1.6 SW 3.2 0.0
15:15 22.0 65.0 1024.4 1.6 SSW 3.2 0.0
15:20 22.2 71.0 1024.3 3.2 SSW 3.2 0.0
15:25 22.4 66.0 1024.5 1.6 SSW 4.8 0.0
15:30 22.7 64.0 1024.3 3.2 SSE 8.0 0.0
15:35 22.8 64.0 1024.2 3.2 NNE 8.0 0.0
15:40 22.7 64.0 1024.4 6.4 ESE 9.7 0.0
15:45 22.4 67.0 1024.4 4.8 ESE 8.0 0.0
15:50 22.3 66.0 1024.3 8.0 SE 11.3 0.0
15:55 22.1 68.0 1024.3 4.8 ENE 12.9 0.0
16:00 22.1 68.0 1024.4 4.8 ESE 12.9 0.0
16:05 22.1 67.0 1024.3 1.6 ESE 12.9 0.0
16:10 22.6 68.0 1024.3 1.6 ESE 6.4 0.0
16:15 22.7 64.0 1024.2 8.0 SE 12.9 0.0
16:20 22.3 64.0 1024.3 6.4 ESE 12.9 0.0
16:25 22.1 65.0 1024.1 1.6 ENE 9.7 0.0
16:30 22.1 66.0 1024.1 4.8 SE 9.7 0.0
16:35 22.1 67.0 1024.1 0.0 SE 6.4 0.0
16:40 22.3 65.0 1024.0 6.4 SE 9.7 0.0
Màxima 22.8 93.0 1026.4 8.0 SE 12.9 0.0
Mínima 15.4 61.0 1024.0
Total 0.0